Weather History for KGRB - March, 2012

Change the Weather History Date:

Sunday, March 11, 2012

  Actual Average Record
Temperature  
Mean Temperature 51 °F 29 °F  
Max Temperature 63 °F 37 °F 63 °F (2012)
Min Temperature 39 °F 21 °F -12 °F (1948)
Degree Days  
Heating Degree Days 14 36  
Month to date heating degree days 333 421  
Since 1 July heating degree days 5177 6261  
Cooling Degree Days 0 0  
Month to date cooling degree days 0 0  
Year to date cooling degree days 0 0  
Growing Degree Days 1 (Base 50)    
Moisture  
Dew Point 34 °F    
Average Humidity 52    
Maximum Humidity 70    
Minimum Humidity 34    
Precipitation  
Precipitation T in 0.05 in 1.21 in (1902)
Month to date precipitation 0.83 0.62  
Year to date precipitation 3.35 2.86  
Snow  
Snow 0.00 in 0.30 in 5.10 in (1941)
Month to date snowfall 8.1 3.7  
Since 1 July snowfall 31.7 43.9  
Snow Depth 0.00 in    
Sea Level Pressure  
Sea Level Pressure 30.08 in    
Wind  
Wind Speed 9 mph (SSW)    
Max Wind Speed 17 mph    
Max Gust Speed 22 mph    
Visibility 10 miles    
Events      
T = Trace of Precipitation, MM = Missing Value Source: NWS Daily Summary

Daily Weather History Graph

Daily Weather History Graph

Search for Another Location

Airport or City:

Trip Planner

Search our weather history database for the weather conditions in past years. The results will help you decide how hot, cold, wet, or windy it might be!

Date:

Astronomy

Mar. 11, 2012 Rise Set
Actual Time 7:11 AM CDT 6:54 PM CDT
Civil Twilight 6:42 AM CDT 7:23 PM CDT
Nautical Twilight 6:08 AM CDT 7:57 PM CDT
Astronomical Twilight 5:34 AM CDT 8:31 PM CDT
Moon 11:31 PM CDT (3/11) 8:35 AM CDT (3/11)
Length of Visible Light 12h 40m
Length of Day
11h 42m
Waning Gibbous, 85% of the Moon is Illuminated
Mar 11
Waning Gibbous
Mar 14
Last Quarter
Mar 22
New
Mar 30
First Quarter
Apr 6
Full

Hourly Weather History & Observations

Time (CDT) Temp. Windchill Dew Point Humidity Pressure Visibility Wind Dir Wind Speed Gust Speed Precip Events Conditions
12:53 AM 44.1 °F 38.1 °F 32.0 °F 63% 30.07 in 10.0 mi SSW 11.5 mph - N/A   Clear
1:53 AM 43.0 °F 37.2 °F 30.9 °F 62% 30.08 in 10.0 mi SW 10.4 mph - N/A   Clear
3:53 AM 43.0 °F 37.2 °F 30.9 °F 62% 30.08 in 10.0 mi SSW 10.4 mph - N/A   Clear
4:53 AM 42.1 °F 37.7 °F 30.9 °F 65% 30.08 in 10.0 mi SSW 6.9 mph - N/A   Clear
5:53 AM 41.0 °F 35.2 °F 30.9 °F 67% 30.09 in 10.0 mi SSW 9.2 mph - N/A   Clear
6:53 AM 39.2 °F 33.6 °F 30.2 °F 70% 30.10 in 10.0 mi SSW 8.1 mph - N/A   Clear
7:53 AM 39.9 °F 33.9 °F 30.0 °F 68% 30.13 in 10.0 mi SSW 9.2 mph - N/A   Clear
8:53 AM 43.0 °F 36.8 °F 32.0 °F 65% 30.14 in 10.0 mi SSW 11.5 mph - N/A   Clear
9:53 AM 46.9 °F - 34.0 °F 61% 30.14 in 10.0 mi SW 11.5 mph 19.6 mph N/A   Clear
10:53 AM 52.0 °F - 37.0 °F 57% 30.14 in 10.0 mi SW 11.5 mph - N/A   Clear
11:53 AM 57.0 °F - 37.0 °F 47% 30.14 in 10.0 mi SW 11.5 mph 20.7 mph N/A   Clear
12:53 PM 59.0 °F - 39.9 °F 49% 30.12 in 10.0 mi SSW 13.8 mph - N/A   Clear
1:53 PM 61.0 °F - 39.0 °F 44% 30.10 in 10.0 mi SSW 9.2 mph - N/A   Clear
2:53 PM 62.1 °F - 37.0 °F 39% 30.08 in 10.0 mi SSW 12.7 mph - N/A   Clear
3:53 PM 63.0 °F - 37.9 °F 40% 30.07 in 10.0 mi South 9.2 mph 18.4 mph N/A   Clear
4:53 PM 62.1 °F - 34.0 °F 35% 30.05 in 10.0 mi SSW 10.4 mph - N/A   Clear
5:53 PM 60.1 °F - 37.0 °F 42% 30.04 in 10.0 mi South 8.1 mph - N/A   Clear
6:53 PM 57.0 °F - 36.0 °F 45% 30.06 in 10.0 mi SSW 4.6 mph - N/A   Clear
7:53 PM 52.0 °F - 37.0 °F 57% 30.06 in 10.0 mi South 9.2 mph - N/A   Clear
8:53 PM 50.0 °F - 36.0 °F 59% 30.06 in 10.0 mi South 5.8 mph - N/A   Clear
9:53 PM 48.9 °F - 34.0 °F 56% 30.06 in 10.0 mi Calm Calm - N/A   Clear
10:53 PM 48.0 °F - 32.0 °F 54% 30.04 in 10.0 mi SE 4.6 mph - N/A   Clear
11:53 PM 46.4 °F 42.4 °F 32.0 °F 57% 29.99 in 10.0 mi SE 8.1 mph - N/A   Clear
12:53 AM 51.1 °F - 37.9 °F 61% 29.98 in 10.0 mi SSE 10.4 mph - 0.00 in   Overcast